Flag for Romania Weather past 2 weeks in Cluj-Napoca, Romania

Now
73 °F

Passing clouds.


Feels Like: 73 °F
Forecast: 62 / 85 °F
Wind: 7 mph from Southwest

Location: Cluj Airport-Napoca

Current Time: Sep 3, 2015 at 1:40:29 AM

Latest Report: Sep 3, 2015 at 12:00 AM


Visibility: N/A

Pressure: 29.89 "Hg

Humidity: 83%

Dew point: 68 °F

Location of Cluj-NapocaLocation

Historic Weather in Cluj-Napoca — Graph

°F

Cluj-Napoca temperature yesterday

Maximum temperature yesterday: 93 °F (at 3:30 PM)
Minimum temperature yesterday: 61 °F (at 6:00 AM)
Average temperature yesterday: 78 °F

Past Weeks' High & Low Weather Summary

 TemperatureHumidityPressure
High93 °F (Aug 30, 4:30 PM)100% (Aug 19, 12:00 AM)30.27 "Hg (Aug 19, 12:00 AM)
Low52 °F (Aug 24, 5:30 AM)28% (Sep 1, 4:00 PM)29.83 "Hg (Sep 2, 4:30 PM)
Average71 °F72%30.10 "Hg
* Reported Midnight between Aug 18 and Aug 19 — Midnight between Sep 2 and Sep 3, Cluj-Napoca, Weather by CustomWeather, © 2015

Note: Actual official high and low records may vary slightly from our data, if they occured in-between our weather recording intervals... More about our weather records

Advertising

Cluj-Napoca weather history for previous 24 hours

 ConditionsComfort  
Time TempWeatherWind HumidityBarometerVisibility
12:00 AM
Thu, Sep 3
73 °FPassing clouds.7 mph83%29.89 "HgN/A
11:30 PM
Wed, Sep 2
73 °FPassing clouds.6 mph89%29.89 "HgN/A
11:00 PM73 °FPassing clouds.7 mph83%29.89 "HgN/A
10:30 PM75 °FThunderstorms. Passing clouds.6 mph78%29.92 "HgN/A
10:00 PM77 °FThunderstorms. Passing clouds.5 mph74%29.92 "HgN/A
9:30 PM77 °FThunderstorms. Passing clouds.9 mph79%29.89 "HgN/A
9:00 PM82 °FThunderstorms. Partly sunny.9 mph51%29.89 "HgN/A
8:30 PM84 °FThundershowers. Scattered clouds.6 mph48%29.86 "HgN/A
8:00 PM84 °FPassing clouds.2 mph55%29.83 "HgN/A
7:30 PM86 °FPassing clouds.3 mph49%29.83 "HgN/A
7:00 PM88 °FSunny.5 mph46%29.83 "Hg10 mi
6:30 PM88 °FPassing clouds.5 mph43%29.83 "HgN/A
6:00 PM88 °FPassing clouds.5 mph43%29.83 "HgN/A
5:30 PM91 °FPassing clouds.5 mph34%29.83 "HgN/A
5:00 PM91 °FPassing clouds.9 mph32%29.83 "HgN/A
4:30 PM91 °FPassing clouds.9 mph32%29.83 "HgN/A
3:30 PM93 °FPassing clouds.12 mph30%29.86 "HgN/A
3:00 PM91 °FSunny.10 mph32%29.89 "Hg10 mi
2:30 PM91 °FSunny.10 mph34%29.89 "Hg10 mi
2:00 PM91 °FSunny.10 mph36%29.89 "Hg10 mi
1:30 PM90 °FSunny.9 mph38%29.89 "Hg10 mi
1:00 PM88 °FSunny.9 mph40%29.89 "Hg10 mi
12:30 PM88 °FSunny.9 mph40%29.92 "Hg10 mi
12:00 PM84 °FSunny.5 mph55%29.92 "Hg10 mi
11:30 AM81 °FSunny.2 mph62%29.92 "Hg10 mi
11:00 AM79 °FSunny.2 mph61%29.92 "Hg10 mi
10:30 AM77 °FSunny.1 mph65%29.92 "Hg10 mi
10:00 AM73 °FSunny.No wind69%29.92 "Hg10 mi
9:30 AM72 °FSunny.No wind73%29.92 "Hg10 mi
9:00 AM68 °FSunny.1 mph83%29.92 "Hg10 mi
8:30 AM66 °FSunny.No wind88%29.92 "Hg10 mi
8:00 AM64 °FSunny.No wind88%29.92 "Hg10 mi
7:00 AM61 °FClear.2 mph100%29.92 "Hg10 mi
6:30 AM61 °FClear.3 mph100%29.92 "Hg10 mi
6:00 AM61 °FClear.3 mph100%29.92 "Hg10 mi
5:30 AM63 °FClear.5 mph94%29.92 "Hg10 mi
5:00 AM63 °FClear.5 mph100%29.92 "Hg10 mi
4:00 AM64 °FClear.5 mph94%29.92 "Hg10 mi
3:00 AM66 °FClear.No wind88%29.92 "Hg10 mi
2:00 AM68 °FClear.1 mph83%29.92 "Hg10 mi
Weather by CustomWeather, © 2015

See weather overviewHow to use our weather pages